Accueil
METAR-TAF:

METAR-TAF

Aéroports :

Uíge, Angola

latitude: 7-36-10S, longitude: 15-1-40E, altitude: 829 m

Observation

Le bulletin a été fait il y a 7 heures et 57 minutes, à 16:00 UTC
Vent 10 kt de ouest
Température 28°C
Humidité 48%
Pression 1011 hPa
Visibilité 10 km ou plus
Quelques nuages à une hauteur de 2500 ft

METAR: FNUG 101600Z 27010KT 9999 FEW025 28/16 Q1011

Heure: 00:57 (23:57 UTC)


TAF: absent

Observations et prévisions météorologiques de plus de 4000 aéroports (messages METAR et TAF).

Les stations disponibles sont représentées par des disques jaunes et rouges sur la carte.

Passer la souris dessus pour voir le nom de la station.

Cliquer dessus pour voir les observations et prévisions météorologiques.

Pour changer de carte: cliquez sur les boutons verts avec une croix noire pour zoomer, sur le bouton vert avec un tiret pour effectuer un zoom arrière, ou sur les flèches vertes pour les cartes adjacentes.


METAR-TAF: